Precipitable_Water
0.55 0.54 0.54 0.52 0.51 0.52 0.53 0.53 0.52 0.52 0.51 0.51 0.50 0.49 0.47 0.46 0.44 0.44 0.44 0.42 0.42 0.42 0.41 0.39 0.39 0.39 0.39 0.41 0.43 0.44 0.45 0.37 0.29 0.28 0.32 0.32 0.38 0.53 0.59 0.64 0.68 0.66 0.64 0.69 0.89 0.86 0.78 0.97 1.09 1.12 1.01 1.00 1.07 1.07 1.16 1.18 1.18 1.21 1.02 0.91 0.83 0.86 0.83 0.86 0.83 0.79 0.77 0.69 0.62 0.64 0.66 0.63 0.64 0.75 0.84 0.88 0.83 0.81 0.91 0.98 1.09 1.11 1.23 1.36 1.39 1.45 1.41 1.47
0.56 0.55 0.54 0.54 0.52 0.52 0.51 0.52 0.52 0.52 0.51 0.50 0.49 0.48 0.48 0.46 0.44 0.42 0.42 0.42 0.41 0.41 0.41 0.42 0.40 0.39 0.39 0.40 0.40 0.44 0.41 0.35 0.26 0.25 0.23 0.32 0.41 0.46 0.45 0.48 0.52 0.54 0.63 0.65 0.72 0.80 0.80 0.94 1.05 1.03 0.99 0.93 1.14 1.02 1.08 1.07 1.15 0.88 0.97 0.95 0.83 0.85 0.92 0.90 0.87 0.80 0.77 0.75 0.76 0.70 0.66 0.61 0.61 0.58 0.60 0.77 0.69 0.68 0.83 0.84 0.89 1.03 1.22 1.41 1.35 1.41 1.37 1.36
0.56 0.55 0.54 0.54 0.53 0.52 0.51 0.51 0.51 0.52 0.50 0.49 0.48 0.48 0.47 0.47 0.45 0.44 0.42 0.41 0.41 0.40 0.40 0.41 0.41 0.42 0.41 0.41 0.39 0.42 0.40 0.27 0.28 0.20 0.24 0.41 0.43 0.41 0.41 0.40 0.44 0.49 0.52 0.54 0.70 0.85 0.86 1.08 1.00 0.93 1.01 0.94 1.06 0.99 0.99 1.05 0.98 0.90 0.97 0.90 0.88 0.94 0.93 0.93 0.94 0.91 0.95 0.86 0.79 0.71 0.67 0.66 0.56 0.56 0.64 0.75 0.64 0.60 0.77 0.71 0.77 1.04 1.11 1.24 1.37 1.25 1.33 1.35
0.56 0.55 0.54 0.53 0.53 0.52 0.51 0.51 0.51 0.51 0.50 0.50 0.48 0.47 0.45 0.45 0.46 0.45 0.44 0.42 0.41 0.41 0.41 0.40 0.41 0.43 0.43 0.41 0.43 0.42 0.38 0.30 0.24 0.36 0.51 0.48 0.42 0.43 0.37 0.36 0.40 0.47 0.50 0.55 0.80 0.90 1.05 1.13 1.17 1.09 1.00 0.80 0.92 0.96 0.93 0.91 0.81 0.93 0.89 0.91 0.95 0.91 0.91 1.00 0.88 0.87 0.93 0.96 0.86 0.82 0.80 0.64 0.60 0.58 0.64 0.72 0.60 0.65 0.81 0.76 0.80 0.94 1.10 1.09 1.20 1.25 1.23 1.28
0.55 0.55 0.53 0.53 0.52 0.51 0.50 0.50 0.50 0.49 0.49 0.49 0.48 0.46 0.46 0.45 0.45 0.44 0.44 0.43 0.43 0.42 0.41 0.40 0.41 0.43 0.43 0.43 0.42 0.44 0.33 0.21 0.33 0.46 0.49 0.44 0.39 0.35 0.35 0.34 0.39 0.44 0.47 0.53 0.81 0.92 1.04 0.96 0.98 0.97 0.88 0.77 0.77 0.86 0.82 0.90 0.88 0.91 0.86 0.96 0.96 0.96 0.88 0.96 0.93 0.90 0.88 0.95 0.91 0.87 0.77 0.71 0.69 0.52 0.69 0.63 0.62 0.58 0.79 0.78 0.93 1.06 1.09 1.12 1.10 1.08 1.19 1.26
0.53 0.53 0.52 0.52 0.51 0.49 0.49 0.49 0.49 0.47 0.47 0.47 0.47 0.47 0.46 0.46 0.44 0.43 0.42 0.43 0.43 0.43 0.42 0.42 0.42 0.42 0.44 0.44 0.41 0.37 0.30 0.20 0.35 0.45 0.48 0.44 0.40 0.37 0.34 0.35 0.37 0.44 0.48 0.57 0.73 0.85 0.88 0.83 0.82 0.80 0.79 0.69 0.69 0.67 0.81 0.78 0.90 0.67 0.85 0.90 0.92 0.97 0.95 0.95 0.92 0.90 0.82 0.85 0.89 0.87 0.88 0.82 0.69 0.59 0.71 0.68 0.69 0.71 0.93 0.89 0.99 1.06 1.16 1.17 1.12 1.12 1.10 1.13
0.51 0.51 0.51 0.50 0.49 0.49 0.48 0.46 0.46 0.46 0.46 0.45 0.45 0.46 0.46 0.44 0.44 0.44 0.43 0.42 0.42 0.43 0.43 0.43 0.44 0.45 0.43 0.43 0.37 0.34 0.24 0.22 0.28 0.43 0.51 0.49 0.46 0.40 0.37 0.35 0.39 0.39 0.48 0.52 0.68 0.79 0.77 0.73 0.72 0.74 0.75 0.70 0.64 0.65 0.70 0.72 0.71 0.67 0.72 0.91 0.91 0.92 0.93 0.98 0.82 0.89 0.76 0.85 0.88 0.91 0.99 0.82 0.75 0.62 0.73 0.66 0.76 0.76 0.93 0.90 1.01 1.13 1.17 1.13 1.06 1.05 1.06 1.09
0.50 0.49 0.49 0.48 0.47 0.46 0.45 0.45 0.45 0.45 0.44 0.44 0.45 0.45 0.44 0.43 0.44 0.43 0.43 0.42 0.42 0.41 0.42 0.44 0.46 0.46 0.47 0.35 0.29 0.31 0.32 0.25 0.51 0.55 0.55 0.54 0.46 0.42 0.39 0.38 0.37 0.38 0.47 0.49 0.59 0.66 0.72 0.63 0.65 0.71 0.71 0.65 0.63 0.59 0.65 0.60 0.61 0.63 0.57 0.76 0.86 0.92 0.96 0.92 0.84 0.82 0.80 0.73 0.90 0.94 0.85 0.84 0.77 0.76 0.69 0.70 0.69 0.79 0.85 0.96 1.00 1.07 1.07 1.09 1.04 1.01 1.02 1.11
0.48 0.47 0.46 0.46 0.45 0.44 0.44 0.44 0.45 0.44 0.44 0.43 0.43 0.43 0.42 0.43 0.43 0.43 0.43 0.43 0.42 0.41 0.41 0.44 0.45 0.49 0.52 0.37 0.22 0.18 0.17 0.34 0.61 0.59 0.51 0.45 0.46 0.41 0.37 0.33 0.39 0.33 0.40 0.53 0.57 0.62 0.61 0.59 0.63 0.70 0.63 0.64 0.68 0.59 0.61 0.55 0.48 0.52 0.51 0.60 0.70 0.83 0.89 0.86 0.83 0.81 0.83 0.75 0.86 0.85 0.76 0.89 0.83 0.89 0.68 0.71 0.65 0.83 0.86 0.98 0.94 1.00 1.01 1.00 1.04 1.00 1.02 1.01
0.47 0.46 0.44 0.43 0.43 0.42 0.42 0.42 0.43 0.43 0.43 0.43 0.42 0.41 0.42 0.41 0.42 0.42 0.43 0.42 0.41 0.40 0.41 0.45 0.50 0.51 0.42 0.33 0.27 0.18 0.29 0.46 0.55 0.49 0.56 0.49 0.43 0.37 0.32 0.39 0.36 0.36 0.36 0.44 0.52 0.54 0.54 0.56 0.58 0.65 0.68 0.66 0.68 0.60 0.62 0.56 0.47 0.52 0.51 0.56 0.67 0.76 0.79 0.82 0.76 0.76 0.78 0.74 0.84 0.76 0.71 0.80 0.85 0.78 0.62 0.76 0.68 0.74 0.81 0.92 0.92 0.92 0.93 0.99 1.00 1.03 1.05 0.98
0.48 0.45 0.44 0.43 0.42 0.41 0.41 0.41 0.41 0.41 0.42 0.41 0.41 0.40 0.40 0.41 0.41 0.42 0.42 0.42 0.41 0.40 0.43 0.49 0.53 0.50 0.32 0.38 0.22 0.18 0.35 0.35 0.43 0.47 0.65 0.59 0.54 0.43 0.33 0.42 0.43 0.37 0.34 0.41 0.43 0.48 0.55 0.57 0.60 0.59 0.56 0.57 0.64 0.60 0.54 0.54 0.53 0.52 0.53 0.54 0.64 0.67 0.72 0.76 0.76 0.74 0.77 0.72 0.78 0.74 0.74 0.82 0.83 0.72 0.73 0.77 0.71 0.73 0.81 0.86 0.87 0.90 0.90 0.94 0.96 0.99 1.03 0.99
0.49 0.46 0.43 0.42 0.41 0.40 0.40 0.41 0.40 0.40 0.40 0.39 0.39 0.39 0.40 0.40 0.40 0.41 0.41 0.41 0.40 0.42 0.47 0.54 0.55 0.48 0.39 0.28 0.26 0.23 0.38 0.41 0.43 0.43 0.48 0.51 0.51 0.53 0.54 0.48 0.52 0.38 0.35 0.35 0.41 0.48 0.48 0.52 0.56 0.53 0.46 0.60 0.55 0.60 0.53 0.54 0.49 0.47 0.46 0.38 0.48 0.56 0.62 0.69 0.68 0.69 0.57 0.64 0.74 0.75 0.71 0.71 0.74 0.59 0.86 0.86 0.80 0.75 0.82 0.82 0.80 0.84 0.87 0.92 0.92 0.95 0.97 0.93
0.47 0.46 0.45 0.42 0.41 0.40 0.40 0.40 0.40 0.39 0.38 0.37 0.37 0.37 0.37 0.38 0.39 0.40 0.41 0.40 0.41 0.46 0.53 0.56 0.57 0.52 0.38 0.24 0.25 0.29 0.34 0.36 0.36 0.39 0.40 0.49 0.45 0.43 0.51 0.57 0.60 0.56 0.43 0.37 0.41 0.47 0.45 0.42 0.45 0.45 0.51 0.47 0.50 0.50 0.55 0.50 0.46 0.46 0.44 0.44 0.43 0.47 0.47 0.54 0.60 0.52 0.56 0.57 0.70 0.72 0.52 0.65 0.70 0.73 0.87 0.91 0.82 0.72 0.76 0.78 0.77 0.81 0.85 0.90 0.89 0.92 0.91 0.92
0.49 0.47 0.47 0.45 0.43 0.41 0.41 0.40 0.39 0.38 0.37 0.36 0.36 0.35 0.35 0.36 0.37 0.39 0.42 0.42 0.44 0.53 0.57 0.61 0.57 0.50 0.39 0.23 0.26 0.29 0.33 0.39 0.44 0.45 0.42 0.43 0.41 0.37 0.37 0.39 0.43 0.46 0.50 0.43 0.42 0.45 0.43 0.41 0.39 0.41 0.46 0.44 0.43 0.51 0.47 0.44 0.43 0.38 0.42 0.44 0.41 0.39 0.42 0.53 0.54 0.57 0.48 0.61 0.67 0.70 0.52 0.67 0.77 0.81 0.85 0.95 0.85 0.69 0.68 0.75 0.76 0.79 0.83 0.81 0.87 0.90 0.87 0.89
0.51 0.49 0.47 0.46 0.44 0.42 0.41 0.40 0.39 0.38 0.37 0.36 0.35 0.34 0.34 0.34 0.34 0.38 0.41 0.42 0.51 0.58 0.61 0.63 0.58 0.47 0.35 0.30 0.42 0.41 0.36 0.39 0.38 0.36 0.40 0.40 0.38 0.32 0.32 0.35 0.36 0.38 0.39 0.40 0.42 0.43 0.44 0.41 0.37 0.35 0.37 0.44 0.45 0.40 0.36 0.37 0.40 0.41 0.37 0.34 0.38 0.38 0.44 0.51 0.57 0.60 0.50 0.64 0.70 0.65 0.49 0.75 0.80 0.83 0.83 0.96 0.90 0.72 0.68 0.73 0.74 0.78 0.80 0.82 0.83 0.86 0.86 0.86
0.55 0.51 0.49 0.48 0.45 0.43 0.42 0.40 0.39 0.37 0.36 0.35 0.34 0.33 0.33 0.34 0.36 0.40 0.41 0.45 0.52 0.57 0.61 0.50 0.50 0.54 0.39 0.25 0.31 0.56 0.41 0.33 0.29 0.34 0.37 0.40 0.39 0.29 0.30 0.33 0.37 0.37 0.37 0.37 0.41 0.44 0.41 0.41 0.34 0.34 0.37 0.41 0.40 0.39 0.35 0.32 0.33 0.37 0.36 0.35 0.35 0.39 0.41 0.46 0.58 0.64 0.55 0.65 0.69 0.62 0.54 0.68 0.80 0.89 0.89 0.95 0.89 0.77 0.73 0.76 0.72 0.78 0.79 0.81 0.81 0.86 0.90 0.89
0.60 0.55 0.52 0.50 0.47 0.45 0.42 0.41 0.39 0.38 0.36 0.35 0.34 0.32 0.33 0.36 0.41 0.43 0.44 0.50 0.52 0.55 0.51 0.41 0.68 0.65 0.29 0.42 0.51 0.37 0.35 0.37 0.41 0.41 0.36 0.39 0.38 0.32 0.35 0.38 0.35 0.34 0.35 0.37 0.40 0.37 0.37 0.31 0.36 0.36 0.36 0.34 0.37 0.37 0.32 0.29 0.29 0.30 0.35 0.34 0.39 0.37 0.40 0.40 0.58 0.65 0.56 0.60 0.61 0.62 0.59 0.71 0.77 0.88 0.91 0.92 0.87 0.77 0.79 0.78 0.76 0.78 0.79 0.83 0.82 0.85 0.93 0.90
0.65 0.61 0.56 0.53 0.49 0.47 0.44 0.41 0.41 0.38 0.36 0.36 0.34 0.34 0.34 0.38 0.45 0.47 0.48 0.52 0.59 0.53 0.49 0.50 0.50 0.44 0.27 0.41 0.28 0.25 0.34 0.38 0.41 0.42 0.37 0.38 0.36 0.40 0.41 0.39 0.36 0.33 0.35 0.31 0.36 0.27 0.29 0.25 0.28 0.25 0.29 0.31 0.31 0.31 0.29 0.26 0.28 0.28 0.33 0.33 0.36 0.42 0.45 0.43 0.52 0.64 0.62 0.59 0.60 0.62 0.56 0.68 0.81 0.80 0.87 0.90 0.84 0.77 0.79 0.83 0.82 0.81 0.81 0.81 0.83 0.83 0.91 0.90
0.68 0.64 0.61 0.56 0.53 0.50 0.46 0.44 0.41 0.39 0.37 0.38 0.37 0.38 0.42 0.55 0.67 0.63 0.57 0.59 0.48 0.41 0.28 0.31 0.35 0.15 0.24 0.33 0.52 0.47 0.34 0.38 0.49 0.43 0.38 0.36 0.34 0.36 0.40 0.43 0.39 0.33 0.29 0.25 0.25 0.23 0.27 0.23 0.23 0.20 0.20 0.24 0.28 0.29 0.30 0.32 0.34 0.32 0.36 0.36 0.36 0.38 0.42 0.43 0.53 0.66 0.66 0.59 0.56 0.63 0.56 0.61 0.74 0.78 0.83 0.88 0.82 0.76 0.77 0.84 0.90 0.88 0.83 0.82 0.84 0.85 0.87 0.89
0.70 0.67 0.63 0.59 0.57 0.54 0.50 0.46 0.42 0.39 0.41 0.38 0.34 0.36 0.51 0.48 0.43 0.54 0.64 0.68 0.51 0.39 0.34 0.44 0.54 0.42 0.35 0.36 0.39 0.48 0.49 0.43 0.39 0.40 0.44 0.39 0.36 0.28 0.30 0.36 0.35 0.33 0.28 0.20 0.22 0.21 0.27 0.18 0.16 0.15 0.17 0.22 0.28 0.32 0.34 0.37 0.37 0.36 0.38 0.41 0.42 0.42 0.43 0.50 0.56 0.62 0.68 0.62 0.62 0.62 0.65 0.64 0.70 0.78 0.81 0.84 0.81 0.78 0.74 0.76 0.82 0.89 0.89 0.87 0.85 0.85 0.88 0.92
0.74 0.70 0.66 0.62 0.58 0.57 0.53 0.48 0.44 0.41 0.44 0.43 0.40 0.39 0.33 0.30 0.22 0.20 0.26 0.26 0.27 0.34 0.38 0.34 0.44 0.44 0.37 0.43 0.40 0.37 0.34 0.37 0.39 0.39 0.37 0.43 0.34 0.31 0.25 0.30 0.30 0.26 0.25 0.23 0.21 0.27 0.23 0.18 0.16 0.16 0.17 0.21 0.25 0.32 0.36 0.35 0.34 0.34 0.36 0.38 0.39 0.42 0.42 0.49 0.55 0.59 0.65 0.60 0.62 0.65 0.66 0.66 0.73 0.84 0.80 0.85 0.81 0.74 0.72 0.73 0.77 0.83 0.89 0.91 0.91 0.89 0.89 0.93
0.76 0.73 0.68 0.63 0.60 0.57 0.55 0.50 0.46 0.45 0.48 0.47 0.44 0.36 0.39 0.36 0.36 0.35 0.28 0.20 0.22 0.23 0.22 0.22 0.25 0.26 0.33 0.35 0.40 0.39 0.34 0.31 0.35 0.36 0.39 0.32 0.28 0.22 0.28 0.26 0.25 0.24 0.27 0.24 0.21 0.22 0.18 0.14 0.16 0.17 0.18 0.19 0.22 0.27 0.32 0.32 0.31 0.34 0.34 0.37 0.37 0.42 0.48 0.48 0.54 0.58 0.64 0.61 0.58 0.66 0.60 0.64 0.68 0.79 0.89 0.84 0.82 0.82 0.81 0.79 0.78 0.81 0.86 0.89 0.91 0.94 0.93 0.92
0.79 0.75 0.71 0.66 0.60 0.58 0.54 0.52 0.48 0.52 0.51 0.42 0.44 0.32 0.35 0.43 0.41 0.39 0.34 0.26 0.22 0.23 0.22 0.20 0.18 0.18 0.19 0.24 0.28 0.33 0.26 0.23 0.24 0.34 0.34 0.32 0.25 0.21 0.27 0.25 0.23 0.25 0.28 0.24 0.17 0.17 0.16 0.14 0.16 0.18 0.17 0.16 0.17 0.21 0.24 0.30 0.33 0.33 0.33 0.33 0.35 0.42 0.43 0.41 0.48 0.52 0.61 0.61 0.57 0.60 0.61 0.63 0.69 0.72 0.86 0.94 0.89 0.87 0.87 0.85 0.83 0.83 0.86 0.91 0.96 0.95 0.92 0.92
0.79 0.77 0.74 0.70 0.65 0.58 0.56 0.51 0.56 0.56 0.52 0.45 0.38 0.37 0.46 0.43 0.41 0.40 0.29 0.23 0.21 0.22 0.21 0.21 0.20 0.18 0.17 0.17 0.21 0.24 0.22 0.22 0.22 0.23 0.36 0.29 0.21 0.23 0.25 0.28 0.23 0.23 0.25 0.25 0.19 0.16 0.15 0.18 0.18 0.17 0.16 0.15 0.15 0.18 0.21 0.25 0.27 0.31 0.31 0.32 0.34 0.37 0.43 0.47 0.46 0.49 0.58 0.62 0.63 0.61 0.63 0.64 0.67 0.64 0.66 0.89 0.95 0.90 0.89 0.88 0.87 0.87 0.86 0.90 0.94 0.95 0.93 0.92
0.80 0.78 0.77 0.73 0.67 0.63 0.54 0.53 0.61 0.43 0.40 0.42 0.48 0.52 0.49 0.46 0.41 0.41 0.29 0.27 0.28 0.26 0.31 0.28 0.24 0.22 0.20 0.22 0.23 0.20 0.21 0.22 0.21 0.21 0.27 0.27 0.23 0.24 0.22 0.30 0.28 0.22 0.22 0.26 0.25 0.18 0.17 0.20 0.21 0.17 0.15 0.15 0.14 0.15 0.18 0.21 0.23 0.27 0.30 0.33 0.35 0.39 0.43 0.45 0.48 0.48 0.50 0.53 0.60 0.60 0.53 0.56 0.65 0.67 0.67 0.73 0.88 0.90 0.93 0.88 0.86 0.89 0.87 0.85 0.88 0.92 0.97 0.97
0.80 0.79 0.79 0.76 0.70 0.65 0.57 0.53 0.58 0.42 0.44 0.44 0.50 0.52 0.47 0.42 0.42 0.38 0.35 0.26 0.19 0.24 0.27 0.24 0.29 0.21 0.26 0.20 0.20 0.20 0.22 0.18 0.20 0.20 0.21 0.24 0.28 0.25 0.25 0.23 0.27 0.21 0.21 0.22 0.24 0.23 0.19 0.20 0.20 0.18 0.15 0.14 0.13 0.13 0.16 0.20 0.22 0.24 0.28 0.33 0.35 0.38 0.40 0.43 0.46 0.47 0.43 0.46 0.59 0.65 0.50 0.50 0.64 0.65 0.69 0.75 0.76 0.84 0.92 0.91 0.90 0.89 0.90 0.90 0.85 0.91 0.95 0.97
0.79 0.77 0.78 0.77 0.72 0.70 0.52 0.39 0.47 0.46 0.43 0.46 0.53 0.51 0.44 0.42 0.42 0.40 0.35 0.26 0.22 0.29 0.25 0.28 0.27 0.25 0.27 0.22 0.21 0.22 0.15 0.16 0.21 0.21 0.20 0.22 0.23 0.27 0.24 0.21 0.24 0.24 0.26 0.25 0.22 0.21 0.23 0.20 0.19 0.19 0.17 0.14 0.13 0.12 0.14 0.18 0.19 0.21 0.30 0.35 0.33 0.35 0.37 0.41 0.46 0.46 0.43 0.51 0.60 0.64 0.63 0.54 0.56 0.64 0.72 0.76 0.76 0.78 0.85 0.90 0.93 0.93 0.91 0.92 0.88 0.89 0.96 1.01
0.78 0.76 0.75 0.76 0.73 0.67 0.61 0.58 0.51 0.44 0.43 0.51 0.56 0.50 0.46 0.42 0.41 0.44 0.33 0.19 0.18 0.31 0.26 0.27 0.30 0.34 0.28 0.25 0.24 0.21 0.18 0.31 0.20 0.20 0.20 0.22 0.23 0.26 0.21 0.22 0.21 0.22 0.24 0.24 0.16 0.20 0.23 0.20 0.19 0.18 0.18 0.15 0.12 0.12 0.14 0.16 0.18 0.20 0.27 0.32 0.33 0.32 0.36 0.39 0.41 0.43 0.44 0.49 0.51 0.59 0.66 0.57 0.56 0.67 0.79 0.78 0.71 0.76 0.83 0.87 0.92 0.96 0.97 0.94 0.93 0.93 0.96 1.02
0.77 0.75 0.73 0.75 0.74 0.66 0.70 0.66 0.56 0.47 0.50 0.54 0.52 0.51 0.46 0.45 0.40 0.35 0.28 0.19 0.29 0.29 0.43 0.29 0.45 0.35 0.29 0.29 0.27 0.25 0.21 0.25 0.23 0.26 0.25 0.23 0.25 0.25 0.20 0.20 0.24 0.25 0.27 0.24 0.19 0.22 0.23 0.23 0.23 0.20 0.18 0.15 0.15 0.14 0.14 0.16 0.16 0.21 0.26 0.31 0.33 0.35 0.34 0.36 0.37 0.38 0.40 0.40 0.39 0.49 0.59 0.53 0.55 0.66 0.68 0.76 0.74 0.71 0.77 0.86 0.89 0.92 0.95 0.99 0.94 0.94 0.99 1.00
0.77 0.74 0.72 0.73 0.73 0.67 0.64 0.61 0.56 0.60 0.60 0.60 0.58 0.53 0.47 0.40 0.36 0.28 0.22 0.17 0.28 0.23 0.33 0.37 0.34 0.31 0.32 0.28 0.27 0.27 0.22 0.23 0.29 0.32 0.31 0.24 0.26 0.28 0.27 0.28 0.24 0.26 0.27 0.29 0.24 0.24 0.27 0.28 0.27 0.23 0.17 0.18 0.19 0.17 0.15 0.15 0.17 0.22 0.25 0.27 0.29 0.32 0.33 0.35 0.35 0.35 0.34 0.33 0.37 0.45 0.51 0.55 0.48 0.62 0.68 0.67 0.70 0.74 0.79 0.81 0.87 0.96 0.97 1.02 1.05 1.01 0.98 1.01
0.76 0.72 0.70 0.72 0.66 0.67 0.65 0.52 0.60 0.64 0.62 0.66 0.58 0.47 0.40 0.38 0.29 0.25 0.19 0.23 0.31 0.29 0.37 0.35 0.32 0.36 0.32 0.29 0.26 0.28 0.24 0.26 0.29 0.35 0.30 0.31 0.29 0.29 0.27 0.25 0.26 0.23 0.25 0.27 0.26 0.24 0.23 0.27 0.26 0.27 0.25 0.21 0.20 0.15 0.15 0.15 0.16 0.18 0.21 0.22 0.26 0.27 0.30 0.32 0.34 0.37 0.29 0.28 0.35 0.43 0.48 0.52 0.44 0.53 0.67 0.76 0.80 0.79 0.79 0.80 0.83 0.87 0.98 0.99 0.97 0.97 0.97 0.97
0.75 0.71 0.68 0.67 0.66 0.74 0.61 0.52 0.54 0.57 0.58 0.60 0.50 0.40 0.36 0.27 0.29 0.21 0.21 0.35 0.24 0.27 0.29 0.31 0.33 0.33 0.32 0.34 0.31 0.28 0.24 0.26 0.33 0.33 0.30 0.28 0.27 0.25 0.23 0.20 0.21 0.16 0.17 0.20 0.22 0.26 0.21 0.20 0.26 0.28 0.29 0.23 0.18 0.14 0.15 0.15 0.16 0.16 0.18 0.21 0.19 0.20 0.24 0.23 0.28 0.27 0.28 0.25 0.30 0.41 0.47 0.44 0.44 0.53 0.66 0.73 0.76 0.78 0.82 0.81 0.80 0.80 0.87 0.96 0.98 0.97 1.00 1.03
0.73 0.69 0.67 0.63 0.67 0.68 0.70 0.66 0.64 0.64 0.64 0.55 0.45 0.42 0.33 0.27 0.20 0.24 0.26 0.30 0.25 0.30 0.29 0.34 0.33 0.33 0.33 0.32 0.30 0.31 0.30 0.24 0.31 0.34 0.33 0.31 0.27 0.27 0.26 0.22 0.24 0.19 0.14 0.18 0.20 0.22 0.22 0.22 0.22 0.26 0.27 0.25 0.20 0.13 0.13 0.13 0.13 0.13 0.15 0.18 0.19 0.19 0.20 0.19 0.22 0.26 0.29 0.31 0.34 0.37 0.43 0.38 0.46 0.54 0.64 0.67 0.75 0.80 0.80 0.79 0.78 0.80 0.83 0.90 1.01 1.06 1.10 1.10
0.70 0.66 0.62 0.63 0.66 0.67 0.71 0.74 0.73 0.72 0.64 0.58 0.43 0.36 0.31 0.24 0.21 0.31 0.28 0.30 0.30 0.33 0.34 0.31 0.32 0.33 0.33 0.30 0.30 0.32 0.28 0.30 0.30 0.31 0.34 0.29 0.27 0.25 0.26 0.24 0.24 0.23 0.18 0.20 0.18 0.20 0.19 0.19 0.19 0.22 0.22 0.24 0.19 0.15 0.15 0.13 0.14 0.16 0.18 0.19 0.20 0.21 0.19 0.18 0.20 0.21 0.23 0.28 0.34 0.36 0.31 0.31 0.38 0.46 0.62 0.68 0.72 0.79 0.82 0.82 0.82 0.84 0.89 0.97 1.13 1.14 1.05 1.03
0.66 0.63 0.65 0.65 0.66 0.68 0.71 0.76 0.74 0.71 0.67 0.55 0.41 0.33 0.25 0.22 0.27 0.27 0.28 0.30 0.32 0.35 0.31 0.33 0.31 0.30 0.30 0.32 0.34 0.33 0.32 0.30 0.32 0.32 0.31 0.29 0.26 0.24 0.24 0.23 0.22 0.23 0.23 0.16 0.21 0.22 0.20 0.21 0.24 0.23 0.24 0.25 0.18 0.17 0.18 0.17 0.16 0.18 0.17 0.19 0.19 0.20 0.23 0.20 0.23 0.23 0.25 0.28 0.27 0.33 0.32 0.36 0.38 0.51 0.60 0.66 0.71 0.73 0.77 0.79 0.80 0.84 0.89 0.91 0.91 0.92 0.96 1.02
0.61 0.56 0.61 0.56 0.58 0.66 0.70 0.79 0.79 0.73 0.64 0.50 0.39 0.30 0.25 0.26 0.25 0.30 0.30 0.35 0.34 0.31 0.33 0.33 0.29 0.28 0.28 0.29 0.33 0.33 0.34 0.30 0.34 0.33 0.30 0.30 0.30 0.26 0.25 0.25 0.23 0.21 0.22 0.19 0.20 0.19 0.22 0.20 0.28 0.30 0.27 0.24 0.22 0.21 0.18 0.17 0.11 0.13 0.14 0.13 0.14 0.20 0.22 0.21 0.23 0.28 0.30 0.30 0.27 0.33 0.33 0.38 0.42 0.45 0.51 0.61 0.65 0.68 0.71 0.74 0.75 0.80 0.87 0.86 0.82 0.85 0.95 0.99
0.49 0.54 0.49 0.54 0.56 0.61 0.64 0.77 0.81 0.71 0.61 0.49 0.36 0.28 0.30 0.31 0.33 0.31 0.31 0.32 0.33 0.32 0.31 0.27 0.28 0.26 0.26 0.27 0.29 0.31 0.32 0.31 0.32 0.33 0.29 0.33 0.30 0.30 0.28 0.26 0.27 0.24 0.22 0.25 0.20 0.21 0.21 0.25 0.30 0.30 0.28 0.26 0.26 0.25 0.21 0.18 0.14 0.13 0.11 0.12 0.15 0.18 0.21 0.22 0.20 0.21 0.23 0.23 0.27 0.32 0.29 0.33 0.35 0.34 0.45 0.53 0.62 0.66 0.70 0.74 0.75 0.77 0.81 0.80 0.76 0.81 0.87 0.93
0.46 0.46 0.50 0.52 0.64 0.64 0.62 0.70 0.76 0.67 0.58 0.45 0.34 0.33 0.37 0.32 0.34 0.33 0.35 0.31 0.30 0.30 0.28 0.26 0.27 0.30 0.25 0.27 0.28 0.31 0.32 0.28 0.27 0.31 0.28 0.30 0.27 0.35 0.32 0.29 0.29 0.28 0.27 0.25 0.21 0.21 0.20 0.20 0.28 0.32 0.31 0.30 0.27 0.25 0.22 0.20 0.17 0.12 0.11 0.14 0.13 0.13 0.13 0.20 0.22 0.19 0.19 0.20 0.25 0.30 0.32 0.33 0.37 0.38 0.44 0.45 0.51 0.58 0.64 0.70 0.73 0.73 0.76 0.78 0.74 0.79 0.84 0.93
0.46 0.48 0.36 0.53 0.67 0.72 0.71 0.80 0.69 0.61 0.51 0.39 0.35 0.32 0.37 0.38 0.40 0.36 0.34 0.34 0.31 0.29 0.26 0.26 0.25 0.28 0.28 0.26 0.29 0.32 0.32 0.27 0.29 0.27 0.24 0.26 0.24 0.31 0.33 0.33 0.30 0.30 0.31 0.29 0.20 0.21 0.23 0.17 0.20 0.31 0.32 0.30 0.26 0.24 0.17 0.17 0.18 0.15 0.13 0.14 0.16 0.15 0.15 0.15 0.19 0.19 0.25 0.24 0.26 0.22 0.28 0.31 0.37 0.37 0.43 0.44 0.50 0.54 0.60 0.64 0.68 0.71 0.71 0.71 0.72 0.78 0.85 0.85
0.43 0.34 0.26 0.46 0.62 0.74 0.80 0.65 0.50 0.48 0.43 0.35 0.36 0.36 0.40 0.37 0.39 0.41 0.38 0.36 0.35 0.31 0.27 0.26 0.27 0.27 0.29 0.28 0.29 0.29 0.32 0.31 0.29 0.27 0.26 0.27 0.26 0.31 0.31 0.36 0.31 0.32 0.32 0.31 0.25 0.20 0.21 0.25 0.18 0.24 0.35 0.32 0.23 0.22 0.18 0.17 0.15 0.14 0.12 0.11 0.13 0.14 0.18 0.19 0.20 0.21 0.23 0.24 0.24 0.23 0.23 0.28 0.35 0.42 0.42 0.44 0.51 0.55 0.56 0.61 0.63 0.64 0.67 0.66 0.65 0.66 0.87 0.84
0.39 0.31 0.25 0.38 0.50 0.69 0.69 0.59 0.43 0.33 0.32 0.37 0.40 0.39 0.43 0.41 0.42 0.42 0.42 0.40 0.35 0.36 0.31 0.27 0.26 0.25 0.28 0.31 0.29 0.29 0.29 0.30 0.30 0.28 0.27 0.28 0.27 0.25 0.32 0.33 0.34 0.32 0.34 0.32 0.28 0.25 0.19 0.24 0.21 0.24 0.27 0.27 0.25 0.27 0.25 0.23 0.21 0.17 0.12 0.10 0.11 0.14 0.19 0.17 0.16 0.23 0.25 0.25 0.24 0.25 0.22 0.29 0.37 0.40 0.41 0.42 0.48 0.50 0.53 0.58 0.65 0.68 0.66 0.63 0.66 0.67 0.64 0.72
0.33 0.24 0.25 0.52 0.59 0.66 0.52 0.39 0.39 0.42 0.34 0.29 0.29 0.35 0.35 0.43 0.41 0.44 0.46 0.47 0.40 0.34 0.35 0.32 0.29 0.26 0.25 0.30 0.34 0.31 0.28 0.27 0.27 0.28 0.30 0.28 0.30 0.29 0.33 0.36 0.36 0.35 0.32 0.29 0.28 0.29 0.24 0.23 0.24 0.23 0.24 0.27 0.30 0.32 0.32 0.30 0.26 0.22 0.17 0.11 0.11 0.12 0.16 0.17 0.14 0.18 0.23 0.25 0.28 0.27 0.24 0.27 0.35 0.43 0.45 0.45 0.46 0.51 0.58 0.63 0.63 0.64 0.64 0.64 0.63 0.61 0.65 0.69
0.32 0.28 0.38 0.41 0.47 0.45 0.38 0.30 0.32 0.31 0.31 0.33 0.37 0.34 0.35 0.35 0.36 0.40 0.41 0.43 0.42 0.43 0.36 0.32 0.29 0.27 0.27 0.26 0.30 0.33 0.32 0.27 0.27 0.25 0.26 0.29 0.32 0.32 0.34 0.35 0.35 0.35 0.35 0.33 0.33 0.32 0.31 0.22 0.22 0.26 0.30 0.31 0.33 0.33 0.32 0.32 0.28 0.22 0.19 0.16 0.12 0.10 0.12 0.14 0.16 0.17 0.19 0.22 0.24 0.25 0.23 0.23 0.34 0.42 0.45 0.48 0.48 0.46 0.49 0.53 0.57 0.59 0.60 0.63 0.63 0.55 0.59 0.67
0.36 0.33 0.29 0.32 0.35 0.40 0.32 0.22 0.21 0.22 0.23 0.26 0.28 0.29 0.33 0.32 0.33 0.34 0.37 0.40 0.40 0.39 0.37 0.34 0.33 0.32 0.28 0.28 0.29 0.28 0.29 0.26 0.29 0.27 0.25 0.25 0.27 0.34 0.34 0.34 0.33 0.33 0.34 0.34 0.32 0.35 0.27 0.26 0.22 0.24 0.26 0.26 0.29 0.29 0.27 0.29 0.27 0.22 0.19 0.18 0.15 0.13 0.11 0.13 0.15 0.22 0.22 0.20 0.22 0.23 0.20 0.24 0.29 0.37 0.40 0.45 0.49 0.49 0.49 0.49 0.53 0.56 0.59 0.59 0.58 0.59 0.62 0.69
0.39 0.37 0.34 0.35 0.40 0.33 0.21 0.24 0.23 0.22 0.22 0.22 0.23 0.25 0.28 0.30 0.33 0.34 0.34 0.35 0.41 0.43 0.40 0.36 0.34 0.32 0.31 0.30 0.27 0.28 0.29 0.27 0.26 0.30 0.30 0.29 0.29 0.29 0.32 0.34 0.35 0.37 0.38 0.39 0.39 0.39 0.31 0.29 0.25 0.21 0.21 0.19 0.17 0.20 0.21 0.23 0.23 0.24 0.22 0.19 0.18 0.16 0.13 0.11 0.09 0.13 0.18 0.23 0.23 0.20 0.22 0.26 0.32 0.36 0.34 0.43 0.49 0.50 0.49 0.48 0.53 0.57 0.58 0.56 0.54 0.56 0.67 0.74
0.35 0.23 0.28 0.28 0.31 0.34 0.35 0.34 0.28 0.27 0.27 0.29 0.31 0.34 0.38 0.37 0.41 0.43 0.40 0.34 0.37 0.39 0.43 0.42 0.38 0.33 0.29 0.27 0.26 0.26 0.26 0.28 0.27 0.26 0.29 0.30 0.32 0.32 0.31 0.33 0.34 0.38 0.43 0.50 0.43 0.42 0.35 0.34 0.32 0.26 0.24 0.24 0.25 0.25 0.30 0.28 0.26 0.21 0.20 0.19 0.17 0.17 0.16 0.13 0.11 0.09 0.12 0.18 0.24 0.26 0.25 0.30 0.32 0.33 0.35 0.39 0.45 0.47 0.51 0.54 0.57 0.61 0.58 0.53 0.65 0.82 0.72 0.66
0.43 0.29 0.28 0.24 0.32 0.30 0.31 0.35 0.35 0.40 0.37 0.40 0.31 0.35 0.32 0.36 0.37 0.37 0.45 0.41 0.36 0.36 0.39 0.40 0.40 0.35 0.32 0.29 0.26 0.24 0.26 0.28 0.28 0.27 0.28 0.29 0.33 0.35 0.37 0.35 0.34 0.37 0.56 0.50 0.52 0.45 0.39 0.36 0.34 0.33 0.29 0.28 0.35 0.35 0.31 0.31 0.26 0.24 0.22 0.20 0.20 0.18 0.17 0.15 0.12 0.10 0.11 0.13 0.14 0.22 0.31 0.27 0.29 0.36 0.41 0.44 0.43 0.44 0.48 0.51 0.53 0.59 0.61 0.58 0.54 0.70 0.67 0.68
0.33 0.37 0.39 0.43 0.32 0.27 0.24 0.28 0.36 0.42 0.45 0.45 0.38 0.41 0.34 0.34 0.34 0.33 0.40 0.43 0.45 0.48 0.43 0.44 0.46 0.46 0.37 0.33 0.31 0.27 0.25 0.25 0.27 0.26 0.28 0.30 0.32 0.35 0.36 0.38 0.36 0.39 0.43 0.43 0.49 0.45 0.41 0.36 0.36 0.35 0.34 0.31 0.31 0.38 0.40 0.33 0.29 0.27 0.25 0.22 0.20 0.19 0.16 0.14 0.14 0.14 0.15 0.12 0.11 0.15 0.24 0.28 0.30 0.33 0.39 0.44 0.47 0.45 0.46 0.48 0.50 0.57 0.59 0.59 0.65 0.70 0.77 0.74
0.43 0.41 0.40 0.45 0.31 0.35 0.34 0.34 0.35 0.34 0.35 0.38 0.40 0.40 0.36 0.35 0.32 0.37 0.39 0.41 0.43 0.44 0.47 0.40 0.43 0.46 0.49 0.51 0.46 0.42 0.40 0.25 0.24 0.28 0.28 0.29 0.31 0.32 0.33 0.35 0.36 0.37 0.41 0.39 0.42 0.43 0.40 0.37 0.39 0.36 0.35 0.38 0.35 0.33 0.37 0.38 0.35 0.31 0.29 0.26 0.22 0.20 0.18 0.15 0.15 0.15 0.15 0.15 0.16 0.15 0.19 0.21 0.26 0.31 0.37 0.42 0.49 0.49 0.50 0.52 0.52 0.55 0.53 0.55 0.64 0.66 0.66 0.86
0.38 0.37 0.35 0.44 0.44 0.42 0.40 0.40 0.37 0.35 0.31 0.35 0.33 0.35 0.35 0.37 0.35 0.38 0.42 0.42 0.39 0.41 0.47 0.44 0.45 0.48 0.50 0.49 0.47 0.42 0.45 0.46 0.47 0.42 0.36 0.30 0.29 0.32 0.32 0.34 0.34 0.34 0.35 0.35 0.38 0.41 0.39 0.36 0.41 0.43 0.37 0.34 0.37 0.39 0.34 0.36 0.38 0.35 0.32 0.32 0.30 0.25 0.22 0.20 0.18 0.16 0.16 0.16 0.16 0.18 0.16 0.16 0.20 0.28 0.33 0.38 0.45 0.46 0.50 0.52 0.52 0.56 0.57 0.55 0.53 0.55 0.59 0.57
0.51 0.52 0.53 0.42 0.33 0.35 0.39 0.39 0.35 0.33 0.30 0.32 0.32 0.33 0.32 0.33 0.34 0.38 0.39 0.47 0.43 0.41 0.43 0.43 0.47 0.48 0.50 0.49 0.49 0.52 0.57 0.53 0.46 0.42 0.41 0.41 0.36 0.40 0.32 0.32 0.35 0.32 0.34 0.33 0.35 0.38 0.38 0.36 0.42 0.42 0.39 0.37 0.41 0.39 0.39 0.35 0.36 0.36 0.37 0.33 0.32 0.29 0.29 0.25 0.22 0.22 0.19 0.15 0.15 0.15 0.15 0.18 0.22 0.24 0.27 0.33 0.34 0.40 0.42 0.46 0.51 0.56 0.58 0.60 0.59 0.56 0.56 0.55
0.54 0.56 0.55 0.48 0.32 0.35 0.35 0.40 0.36 0.32 0.26 0.28 0.30 0.34 0.35 0.33 0.35 0.38 0.36 0.44 0.47 0.49 0.49 0.46 0.49 0.50 0.49 0.49 0.48 0.51 0.55 0.57 0.53 0.51 0.53 0.53 0.52 0.46 0.48 0.49 0.38 0.33 0.31 0.29 0.31 0.33 0.35 0.34 0.35 0.39 0.35 0.34 0.37 0.37 0.38 0.42 0.38 0.32 0.31 0.31 0.32 0.31 0.29 0.31 0.24 0.26 0.28 0.22 0.16 0.15 0.16 0.20 0.24 0.27 0.26 0.27 0.29 0.32 0.34 0.46 0.43 0.43 0.52 0.60 0.61 0.60 0.61 0.59
Wind_Speed
14 14 14 14 14 14 14 14 14 14 15 15 15 15 15 15 15 15 15 15 15 15 15 16 16 16 15 15 15 14 14 14 14 13 13 13 12 12 12 12 13 14 13 12 13 13 12 13 12 10 8 7 6 7 8 7 7 5 3 2 2 1 0 2 0 1 3 3 3 5 5 5 5 5 5 5 6 7 7 6 5 5 8 9 11 13 14 14
14 14 14 14 14 14 15 14 14 15 15 15 15 15 15 15 15 15 15 15 15 16 16 16 16 16 15 15 15 15 14 14 14 15 15 14 13 13 13 13 14 15 15 14 15 14 14 13 13 11 9 8 8 7 7 8 8 6 4 3 3 1 2 3 1 1 2 2 4 4 5 5 4 4 6 6 6 7 7 6 6 7 9 10 12 13 13 14
15 15 15 15 15 15 15 15 15 15 15 15 15 15 15 16 16 15 16 16 16 16 16 16 16 16 16 15 15 15 13 13 14 14 12 12 12 12 12 13 14 15 16 16 16 15 14 13 14 12 11 10 9 9 8 7 7 7 5 4 5 4 3 2 1 1 2 3 4 4 5 5 4 4 6 7 6 7 8 7 7 9 10 10 12 12 13 15
15 15 15 15 16 16 16 16 16 16 15 16 16 16 16 16 16 16 16 16 16 16 16 16 16 16 15 15 15 14 12 13 12 9 8 9 10 11 11 12 14 15 17 17 16 16 14 14 14 13 12 11 10 10 9 8 6 6 6 3 4 5 4 4 4 2 3 4 5 4 4 5 5 4 5 7 5 6 8 7 8 10 10 11 12 13 13 14
15 15 15 16 16 16 16 16 16 16 16 16 16 16 16 16 16 16 16 16 16 16 16 16 16 16 15 15 14 13 11 9 7 6 7 8 9 10 10 11 13 15 17 18 17 16 15 15 14 14 13 11 11 11 10 10 7 6 7 5 3 3 2 6 5 3 3 4 5 4 5 4 5 5 5 7 5 5 8 7 9 10 11 11 12 13 13 14
16 16 16 16 16 16 17 17 17 17 17 17 17 17 17 17 17 17 17 17 16 16 16 15 15 15 15 15 13 12 11 9 7 7 8 9 9 10 10 11 12 15 17 18 18 16 16 16 15 15 13 12 12 12 11 12 10 7 8 9 6 3 3 6 5 4 3 4 5 5 5 5 5 5 5 6 4 5 8 8 9 10 11 12 12 13 13 15
16 16 16 16 17 17 17 17 17 17 18 18 18 18 18 18 17 17 17 17 17 16 16 16 15 15 15 14 13 12 13 14 14 11 10 10 11 11 11 11 12 15 17 18 18 17 17 17 16 15 13 13 12 12 13 14 14 10 8 9 9 7 8 7 4 4 4 5 6 5 6 6 6 6 5 5 3 4 9 8 9 11 11 12 12 13 14 14
16 16 16 17 17 17 17 17 18 18 18 18 18 18 18 18 18 18 18 17 17 16 16 15 15 14 14 12 12 12 14 15 13 12 12 11 11 11 12 12 13 15 17 18 18 18 17 17 17 16 14 14 13 13 13 13 15 13 10 9 9 9 9 8 6 6 6 5 6 6 6 6 6 6 6 6 4 5 9 9 10 11 11 12 12 13 14 14
16 16 16 17 17 18 18 18 18 18 18 19 19 19 19 18 18 18 18 17 17 16 16 15 15 14 13 12 12 12 13 11 10 11 13 12 12 12 13 13 14 15 17 18 18 19 18 17 18 17 15 14 14 14 13 12 12 13 12 10 9 10 9 9 9 8 7 6 7 7 7 7 6 6 7 7 6 6 8 10 10 11 11 12 12 13 14 14
17 17 17 17 18 18 18 18 19 19 19 19 19 19 19 19 19 18 18 17 17 16 16 15 14 13 12 12 12 12 11 9 10 12 13 13 12 13 13 14 15 15 17 18 19 20 19 17 17 17 16 15 15 14 14 14 12 13 14 12 11 11 10 10 10 10 9 8 9 9 8 8 7 6 6 8 8 7 9 11 10 11 12 12 12 12 13 14
17 17 18 18 18 19 19 19 19 19 19 19 19 19 19 19 19 18 18 17 17 17 16 15 14 13 13 12 13 13 11 9 10 11 12 12 13 14 15 15 16 16 17 18 19 20 19 18 17 16 16 16 16 15 15 15 14 14 15 14 14 12 12 11 11 12 10 9 10 10 8 8 8 7 7 9 9 9 11 11 11 11 12 12 13 13 13 14
18 18 19 19 19 19 19 19 19 20 20 20 20 20 20 20 19 19 18 18 17 17 15 15 13 12 13 13 14 15 13 12 12 11 13 14 14 15 16 16 17 17 17 18 19 20 20 19 19 18 16 15 15 15 14 15 16 17 16 14 14 13 12 12 11 12 11 10 11 10 9 10 10 8 8 10 9 10 12 11 11 12 12 13 12 13 13 13
19 19 19 19 19 19 19 20 20 20 20 20 20 20 20 20 20 19 19 18 17 17 16 15 14 13 13 13 15 16 16 16 15 14 14 14 15 16 17 17 17 18 18 18 19 19 20 19 20 20 19 16 15 14 13 13 14 16 15 13 13 13 13 14 12 12 12 11 12 11 9 10 11 9 9 11 10 10 12 12 12 12 12 13 12 13 14 14
20 20 20 20 20 20 20 20 20 21 21 21 21 21 21 20 20 19 19 18 17 17 16 15 14 13 14 14 15 17 17 16 16 16 15 15 15 16 18 18 19 19 19 19 19 19 19 20 20 20 20 19 17 16 15 14 13 13 15 14 13 12 13 14 13 13 12 11 13 12 9 9 11 11 10 12 11 11 13 12 12 12 13 13 13 14 14 14
20 21 21 21 21 21 21 21 22 22 21 21 21 21 21 20 20 19 18 18 17 16 16 15 14 14 15 17 17 16 16 16 16 16 16 16 16 16 18 19 20 20 20 20 20 19 19 20 21 20 20 20 19 17 16 15 14 13 14 14 14 13 12 12 12 13 12 11 13 12 9 9 11 11 11 13 12 11 13 13 13 13 13 14 14 14 14 15
21 21 21 22 22 22 22 23 23 23 23 22 22 22 21 20 20 19 18 17 16 16 15 14 14 14 16 15 13 13 14 15 16 16 16 16 16 16 17 18 19 20 21 20 20 20 20 20 21 21 20 20 19 18 16 15 14 14 14 14 15 14 12 11 11 13 13 12 14 13 11 8 10 12 13 15 14 12 14 14 14 14 14 14 14 14 14 15
22 22 22 23 23 23 23 23 23 23 23 23 23 22 21 20 19 18 17 16 16 15 15 15 14 15 16 15 14 13 13 14 14 14 15 15 16 15 15 17 18 20 21 21 21 20 21 21 20 20 21 20 19 19 17 17 15 14 15 14 15 15 14 11 11 13 14 13 14 14 13 9 9 13 15 16 15 14 14 14 14 14 14 15 15 15 15 15
23 23 23 24 24 24 24 24 24 24 24 24 23 22 21 20 18 17 16 15 15 14 15 15 15 15 14 14 16 15 14 14 13 12 13 13 14 15 15 15 16 18 20 20 21 22 21 21 20 20 21 21 20 19 19 18 16 14 15 14 14 15 16 14 12 12 14 15 14 14 15 12 9 11 15 16 15 15 15 15 15 15 14 15 15 16 16 15
24 24 24 24 25 25 25 25 24 24 24 23 22 21 20 18 16 16 15 15 14 14 14 13 14 15 12 12 13 13 13 13 12 11 12 12 12 14 14 15 16 18 19 19 21 23 21 20 21 22 22 22 22 22 21 20 19 17 16 15 15 14 15 14 13 13 14 15 15 14 15 13 10 12 15 15 15 16 15 15 15 15 15 15 15 16 16 16
25 25 25 25 25 25 25 25 25 24 24 22 20 19 17 16 15 14 14 15 17 17 18 16 16 18 17 15 12 11 10 11 13 12 12 12 12 13 14 15 16 18 19 19 20 22 22 22 23 23 23 24 24 25 24 22 21 20 18 17 18 16 14 14 16 17 16 14 15 15 15 14 12 14 15 15 15 16 16 16 16 16 15 16 16 16 17 17
26 25 26 26 26 26 26 25 25 24 23 21 19 18 17 16 16 16 17 19 20 20 22 22 21 21 21 19 16 13 12 13 15 15 14 13 13 13 14 15 16 17 18 20 20 21 23 24 25 25 24 25 25 26 26 24 23 23 20 18 18 17 15 15 16 18 18 15 15 16 16 16 15 15 16 15 15 16 17 16 16 17 16 16 16 17 17 16
26 26 26 27 27 27 27 26 25 24 22 20 18 19 18 17 17 18 20 21 21 22 24 23 24 24 23 22 20 18 17 16 17 17 16 15 15 14 14 15 16 16 18 20 20 20 23 25 26 26 25 25 25 25 26 26 25 23 21 19 18 17 16 16 15 16 19 15 14 17 17 16 17 16 16 16 16 16 17 17 17 17 17 16 16 16 16 17
27 27 27 27 27 28 27 26 26 23 21 19 20 20 19 18 19 20 21 21 22 23 24 24 24 24 23 23 22 21 21 19 18 19 18 17 17 17 16 16 17 17 18 20 21 21 22 23 25 26 25 26 27 26 26 27 26 24 22 21 20 18 17 15 14 16 19 16 15 16 17 16 17 18 17 17 17 17 17 18 17 17 17 17 17 17 16 17
28 28 28 28 28 28 28 27 24 21 20 21 22 21 19 19 20 21 21 22 22 21 22 24 23 23 23 22 21 22 23 21 20 19 19 19 18 17 17 17 17 18 19 20 23 24 22 21 23 26 27 27 27 28 27 26 25 25 25 23 20 19 18 17 14 14 17 17 15 15 15 16 18 18 18 19 19 18 18 19 18 18 18 17 17 17 17 18
30 29 28 28 28 28 29 26 21 21 22 22 21 19 19 20 20 21 21 21 21 20 21 22 21 21 22 21 20 22 22 22 22 21 20 21 19 18 17 17 17 18 20 21 22 23 23 21 21 24 27 28 28 28 29 27 24 25 27 26 24 21 20 19 17 14 16 16 15 15 15 15 18 20 20 19 19 19 19 19 19 19 18 18 18 18 18 18
31 30 29 29 28 29 28 23 20 23 23 20 19 19 20 20 19 20 20 20 21 20 19 18 17 17 18 19 20 20 20 22 23 23 22 22 21 20 18 18 17 19 20 20 20 20 22 23 22 23 26 28 29 28 29 28 25 24 26 27 27 25 22 21 20 18 19 17 16 17 16 15 17 20 20 20 21 21 20 20 20 20 19 19 18 18 18 18
32 32 31 30 29 28 25 23 23 24 23 21 20 21 21 20 20 20 18 19 19 17 16 15 15 15 16 18 19 18 18 18 20 24 24 23 23 22 21 19 18 19 18 18 19 19 20 23 24 24 25 27 28 29 29 29 27 25 24 25 27 27 25 23 21 21 20 18 18 20 19 18 18 19 20 21 23 23 22 21 21 21 21 21 20 19 19 19
34 34 33 31 30 28 26 26 27 25 24 24 23 23 22 21 21 19 18 18 16 12 12 14 14 15 16 17 19 20 18 15 17 22 24 24 24 22 22 22 21 20 20 20 20 20 19 22 24 25 25 25 27 28 28 29 29 26 24 25 25 26 27 25 23 22 21 19 19 20 20 19 18 19 19 21 24 24 23 24 23 22 23 22 22 21 20 20
35 35 34 33 32 30 27 27 28 27 26 25 24 24 23 22 22 19 19 20 17 14 15 15 14 16 17 17 20 23 21 18 16 18 22 24 24 23 22 23 23 22 22 23 22 20 20 21 23 25 25 24 25 27 29 30 29 27 26 25 25 25 26 26 24 23 23 22 21 21 21 19 18 19 20 21 23 24 24 24 23 23 24 23 23 22 22 20
36 35 35 34 32 30 28 28 29 28 27 27 26 25 24 23 21 20 22 21 18 17 16 16 16 17 18 19 20 22 23 21 17 16 20 22 24 24 23 23 24 23 23 24 24 23 22 21 22 24 24 23 24 26 29 31 29 27 27 25 25 25 25 25 25 24 23 23 24 24 23 21 19 20 22 22 22 22 23 23 23 24 24 24 23 23 23 21
36 36 36 35 32 30 29 29 29 27 27 27 26 26 25 23 22 23 24 21 20 19 17 17 19 19 20 21 20 22 23 22 19 18 20 21 22 24 23 22 23 23 23 24 24 24 25 23 21 22 24 24 24 25 27 29 30 29 27 25 24 24 24 25 25 25 24 24 25 26 26 25 22 20 21 23 23 23 23 23 24 25 25 24 24 24 23 22
37 37 37 36 34 32 31 31 30 29 28 28 27 26 25 24 26 28 25 20 20 21 20 20 21 21 22 23 22 22 23 23 22 21 21 21 22 23 24 23 22 22 23 23 23 24 25 26 23 21 23 25 25 24 25 27 29 29 28 27 25 23 22 24 24 24 25 25 25 26 27 26 25 22 22 23 23 25 25 23 24 25 25 25 25 24 23 22
38 39 38 36 35 34 33 33 32 31 30 28 28 27 25 27 29 29 27 24 20 18 17 20 22 22 23 23 23 23 24 24 24 23 23 23 23 24 26 26 25 24 23 22 23 23 23 25 27 25 22 24 26 24 24 26 27 29 30 29 26 23 22 23 23 22 23 24 25 27 27 25 25 23 24 25 24 23 25 25 24 24 24 24 23 23 22 22
40 39 37 36 35 35 34 34 33 32 30 29 28 27 28 32 31 27 28 29 26 22 19 19 21 24 25 24 24 23 24 25 26 25 24 25 25 25 26 28 29 26 23 22 23 23 23 23 27 27 22 22 27 26 24 25 26 28 29 30 29 26 24 23 22 22 23 23 24 27 26 24 24 21 21 25 26 24 24 24 24 24 24 23 23 24 23 22
41 39 37 36 35 35 35 34 33 32 30 30 29 30 33 34 30 28 29 29 29 29 27 25 24 25 27 26 26 26 25 25 26 27 26 27 27 26 27 28 30 28 25 24 23 23 25 24 24 27 26 24 26 26 25 24 25 27 28 31 32 30 27 24 23 24 23 23 23 24 24 24 23 21 20 21 23 25 25 23 24 24 24 25 25 25 24 22
40 37 36 36 35 35 35 34 32 32 32 31 31 34 36 34 30 29 28 27 28 29 29 29 28 27 27 27 27 29 28 26 26 27 28 29 29 29 28 27 29 31 28 25 22 22 24 24 23 26 28 28 26 25 27 26 24 24 28 32 32 31 30 27 26 26 24 24 23 23 23 23 23 22 21 21 21 23 24 24 24 23 24 24 24 25 25 22
39 37 37 37 37 36 35 32 31 32 33 33 35 38 37 35 34 33 30 29 29 28 29 30 29 29 29 28 28 29 29 28 28 27 27 29 30 30 30 29 29 32 31 28 24 23 23 22 22 26 28 29 28 26 27 29 27 24 26 29 29 30 31 28 25 25 25 25 23 24 26 24 22 22 22 22 22 22 23 24 23 22 23 24 23 23 25 24
39 38 37 37 35 34 34 32 31 32 33 34 39 41 38 36 37 36 35 33 31 30 31 30 29 30 31 30 29 29 29 29 29 28 28 28 29 30 31 30 30 32 33 31 27 24 24 22 21 25 26 27 27 27 26 29 32 30 26 25 26 29 31 30 28 25 26 25 22 25 27 26 24 23 22 24 24 23 23 23 23 22 22 23 23 23 25 24
39 37 36 33 30 30 31 31 32 34 35 36 39 39 38 39 39 39 38 37 34 33 33 33 31 31 32 32 31 30 30 31 30 30 29 28 28 29 31 30 30 31 33 33 29 25 24 23 21 22 24 24 26 28 28 27 30 32 29 26 26 28 28 29 30 28 26 25 23 25 26 25 25 24 24 25 24 24 24 23 23 24 24 25 24 24 25 25
38 37 35 33 32 31 32 33 34 35 36 38 40 38 38 38 39 41 42 40 38 35 34 34 33 33 33 33 33 31 30 31 32 31 31 30 29 29 30 30 30 31 32 33 32 28 25 24 23 21 22 25 27 28 29 27 26 28 31 30 27 26 27 28 30 31 29 26 24 24 25 25 24 23 24 24 23 24 25 24 24 25 27 27 25 24 26 26
39 37 35 33 32 33 35 36 36 37 38 40 40 40 40 39 39 40 42 42 41 40 39 37 36 35 35 34 33 32 30 30 31 31 31 32 31 28 29 30 30 30 31 33 32 30 27 25 24 23 23 26 28 29 29 28 26 26 29 32 30 27 25 26 27 30 31 29 27 25 25 25 24 22 22 22 22 23 25 25 25 26 28 28 28 27 26 27
40 38 36 34 34 35 37 38 38 38 39 40 41 41 41 40 41 41 42 42 41 41 42 42 40 38 37 36 35 33 31 31 31 31 31 32 33 30 27 29 31 31 30 31 32 32 28 26 26 26 26 26 26 27 29 29 29 27 27 30 32 31 28 25 25 28 30 30 31 29 27 26 24 22 21 21 21 22 24 24 23 26 27 27 28 28 26 27
41 41 41 40 40 40 39 39 40 39 40 41 42 43 42 41 41 41 42 42 42 40 40 42 43 41 38 37 37 35 33 32 33 33 31 32 33 33 31 30 31 32 31 30 31 31 30 28 27 27 26 26 26 27 29 29 29 29 29 29 31 34 34 30 25 26 28 30 30 29 29 29 26 22 21 21 22 23 24 24 23 24 25 26 29 27 24 26
42 43 42 42 41 41 41 41 41 40 40 42 42 43 43 43 43 43 42 42 41 40 40 40 42 42 41 39 38 37 35 33 34 35 33 31 31 32 34 33 31 31 31 29 29 30 30 30 29 26 25 26 26 26 28 30 30 29 29 30 31 33 36 35 29 25 26 31 32 29 27 28 28 24 22 22 23 23 24 24 23 23 23 25 28 26 24 25
42 42 41 39 39 40 41 41 41 40 40 41 42 42 41 41 42 43 44 44 43 41 40 40 39 40 40 40 41 41 39 36 34 33 33 32 30 31 33 34 32 31 30 28 28 29 30 30 30 29 27 26 27 26 26 27 28 28 28 30 31 32 34 35 33 29 26 27 31 31 28 26 27 27 26 25 23 22 22 23 23 23 22 22 23 23 24 24
41 40 39 37 37 38 40 41 41 41 40 39 39 40 39 38 38 39 40 43 45 45 42 41 40 39 38 39 40 42 43 41 37 34 33 32 30 30 33 33 33 32 28 25 27 30 29 29 32 33 31 29 27 27 26 25 26 28 30 31 32 32 33 32 32 34 32 27 27 29 29 28 27 28 28 28 27 23 20 22 23 22 21 20 21 21 22 23
39 38 38 36 36 36 37 37 38 37 37 38 38 39 41 40 39 37 36 36 38 39 39 39 39 39 39 38 38 39 41 43 41 38 37 35 31 31 34 35 34 32 29 26 27 29 28 30 33 35 36 33 30 28 28 27 28 29 30 32 32 32 33 32 32 34 34 31 30 29 28 29 31 28 26 26 28 27 23 22 23 23 21 21 22 22 23 23
37 37 37 37 36 35 34 35 35 35 35 37 37 38 41 42 40 38 36 35 33 31 32 35 35 35 36 36 34 34 35 38 42 42 40 37 34 31 33 36 36 34 32 32 31 29 29 31 32 33 36 37 35 32 30 28 28 29 29 30 31 32 33 33 33 33 33 32 33 32 29 30 32 32 30 26 25 26 27 25 25 25 24 23 22 23 24 25
35 35 35 35 34 34 34 36 36 36 35 35 34 35 38 40 40 38 35 35 35 32 30 33 35 33 33 33 32 31 30 30 34 38 39 38 37 34 32 34 36 35 34 34 33 31 30 31 32 32 32 35 37 36 34 31 29 29 29 29 30 30 32 33 33 34 34 34 35 35 32 31 32 33 35 33 28 26 26 26 26 27 28 26 24 24 25 26
32 31 31 30 30 30 31 31 32 32 32 32 32 32 33 35 38 38 35 33 35 34 31 32 34 34 33 33 32 30 29 28 28 31 34 35 36 35 34 33 35 36 36 34 32 32 32 31 31 31 29 30 33 35 36 35 32 30 30 30 30 31 31 32 32 33 33 33 34 35 33 33 33 32 33 35 34 31 28 27 26 27 28 29 29 28 28 27
28 28 28 27 27 26 26 26 26 27 28 28 29 30 30 32 33 34 36 35 35 34 33 32 33 34 35 35 34 31 29 30 32 32 33 35 37 37 36 35 35 36 37 35 33 33 34 32 31 30 30 30 31 32 35 36 34 33 33 32 33 33 32 31 30 30 31 31 32 33 32 32 32 32 32 33 35 35 34 32 30 29 29 30 31 32 31 29
24 24 23 23 23 22 22 22 22 23 24 25 26 27 28 29 29 29 32 34 35 34 33 32 32 34 35 36 35 33 31 32 34 35 34 36 40 40 36 35 36 35 33 33 34 34 34 34 32 31 31 32 31 30 30 30 31 33 36 35 33 31 31 30 28 27 29 30 30 30 29 28 27 29 32 32 33 34 35 36 35 33 31 30 31 32 32 31
Wind_Direction
315 315 315 314 314 314 313 313 312 312 312 312 313 313 312 311 310 308 306 304 302 299 298 297 295 294 293 292 292 293 294 291 285 273 257 248 240 234 230 225 223 221 221 220 214 207 207 211 212 215 224 224 219 220 215 214 217 216 216 239 262 319 293 251 333 132 153 135 154 166 155 150 155 153 161 166 159 169 175 171 172 170 167 165 164 164 163 163
314 314 314 313 313 313 313 312 311 311 311 311 311 311 311 310 309 308 307 305 303 300 298 296 295 293 292 291 291 292 292 288 281 274 260 246 236 232 230 228 225 222 219 217 213 208 208 210 211 216 222 219 217 220 217 213 214 212 215 241 258 273 232 240 288 149 180 159 158 166 163 161 157 153 170 167 153 173 176 170 174 162 160 161 163 165 165 165
314 314 313 313 312 312 312 311 311 310 310 310 309 309 309 308 308 307 306 305 304 302 299 297 295 294 293 291 290 289 288 287 280 271 256 235 225 226 227 227 224 220 218 217 214 210 210 209 210 215 217 219 219 217 214 208 212 213 215 237 242 257 288 272 255 183 183 169 167 176 170 162 162 164 177 170 160 181 179 177 181 165 162 165 166 168 168 169
316 315 314 313 312 312 312 311 310 310 310 310 309 308 307 306 305 305 305 304 304 302 301 298 296 294 293 291 289 286 284 283 274 256 236 221 220 223 224 224 222 220 217 217 216 213 212 210 211 213 216 223 222 219 214 200 202 210 212 225 239 262 298 281 259 193 176 180 174 181 178 169 171 175 182 175 172 186 182 184 179 171 172 169 169 171 172 173
318 316 315 314 313 313 312 311 310 310 310 309 308 307 306 305 304 303 303 302 302 301 301 300 298 295 292 291 286 282 279 275 257 231 221 221 224 223 222 222 221 220 215 217 218 215 212 213 215 215 218 225 224 220 216 211 212 224 222 220 257 290 287 265 254 198 190 193 181 187 191 183 175 185 189 181 196 201 186 183 173 174 175 169 172 173 174 177
318 317 316 315 314 313 312 311 311 309 309 308 307 307 306 305 303 302 301 300 300 299 299 298 298 297 293 290 284 275 265 255 255 246 229 228 233 230 226 222 221 219 215 217 219 217 212 214 217 217 219 224 228 226 220 217 218 238 236 221 242 267 236 255 247 207 212 202 196 195 191 192 186 193 191 187 221 204 179 178 170 172 174 170 174 175 177 180
317 317 315 314 313 313 312 311 310 309 308 307 306 306 305 304 303 301 300 299 298 297 297 296 296 296 294 290 280 270 256 256 262 251 234 235 238 236 231 225 221 217 215 217 219 218 213 214 217 217 220 222 229 232 232 231 223 234 242 227 239 240 235 248 238 219 229 213 201 198 197 202 199 196 193 194 222 182 170 173 169 171 175 175 175 177 179 180
317 316 314 314 313 313 312 310 309 308 307 306 305 304 304 303 302 302 300 298 297 296 295 294 294 293 292 288 280 272 262 260 254 240 238 241 239 236 232 225 220 216 215 217 218 218 215 216 217 217 221 223 227 229 237 241 229 231 233 230 245 240 233 241 243 234 231 222 201 202 207 204 203 199 202 199 187 166 168 171 171 173 178 178 178 179 180 180
317 316 315 315 314 313 312 310 309 308 306 305 304 302 302 301 301 300 299 298 296 295 293 292 291 289 286 282 279 275 270 261 241 240 246 242 238 233 230 224 218 216 216 218 219 218 217 218 218 219 223 227 230 232 236 235 230 235 235 239 251 244 237 239 245 237 232 231 204 207 212 200 201 200 206 197 181 175 170 171 173 176 178 178 181 181 179 181
317 317 317 315 314 313 312 311 309 308 307 305 303 302 300 299 298 298 297 297 295 294 292 290 288 285 280 275 272 270 270 263 248 249 245 236 233 229 229 224 217 216 218 219 220 219 218 219 220 222 228 230 234 238 236 233 236 241 242 243 242 242 242 242 247 236 231 234 209 211 214 199 199 206 209 190 184 190 173 170 175 178 179 178 181 181 179 182
316 316 317 315 314 313 312 311 310 308 307 305 303 301 299 298 296 295 294 293 293 293 291 288 286 281 275 270 266 264 263 265 260 252 243 235 231 229 231 225 218 218 219 220 220 220 220 220 221 224 228 230 235 240 240 240 243 247 250 244 235 244 243 237 246 233 226 231 213 210 210 198 198 211 210 185 185 192 176 173 177 179 181 179 181 180 179 183
316 316 316 315 314 313 312 312 310 309 307 305 303 300 299 297 295 294 292 290 290 289 287 286 283 279 276 269 261 261 262 265 265 257 249 243 237 234 232 228 222 220 220 222 221 221 221 220 223 226 228 229 233 238 243 243 244 249 256 249 239 246 240 231 240 229 225 229 209 203 210 205 204 211 203 186 189 189 180 182 180 180 183 181 183 181 179 183
316 316 315 315 314 313 313 312 311 309 308 305 303 300 298 296 294 292 290 288 286 284 283 282 280 276 275 270 264 264 264 263 261 258 252 246 243 238 234 231 227 223 223 224 223 222 221 221 225 228 230 232 232 235 242 243 243 245 245 244 240 242 240 235 235 229 231 225 201 200 215 211 205 208 198 187 192 192 186 188 184 183 184 184 186 183 181 184
315 315 314 313 313 312 312 311 310 309 308 305 303 301 298 295 293 290 288 286 283 280 278 277 276 273 269 270 273 271 265 262 259 255 250 246 245 240 235 233 230 228 226 226 226 224 223 223 225 229 230 232 235 238 243 244 246 243 234 234 237 241 243 231 223 227 230 215 196 199 218 217 207 205 200 191 193 197 193 189 188 187 186 186 189 186 183 185
313 312 312 311 311 310 310 309 309 308 307 305 303 300 297 294 291 288 286 283 280 277 275 274 270 270 271 272 276 273 262 259 257 253 250 246 244 242 236 233 231 230 228 227 227 225 224 224 225 228 229 230 233 237 242 243 240 237 232 231 230 235 242 228 217 223 222 208 199 203 217 220 213 207 202 196 196 200 195 191 191 191 188 188 190 190 186 187
310 310 309 309 309 308 308 308 307 306 305 304 302 299 296 293 290 287 284 281 278 274 272 272 267 267 274 276 276 270 256 253 254 253 252 245 241 241 238 234 232 230 228 227 226 226 224 224 226 227 228 228 229 230 237 242 236 231 229 232 228 226 233 229 219 220 217 207 204 210 215 216 221 218 203 197 200 202 196 193 194 193 190 190 192 192 190 189
309 309 308 307 307 307 306 306 305 305 305 303 301 298 295 291 287 284 281 277 276 272 269 270 268 266 270 273 274 269 258 254 255 253 248 242 237 238 237 233 231 228 227 226 226 226 224 224 225 226 226 226 225 226 231 236 234 227 224 228 230 228 230 223 215 218 214 210 210 213 217 220 228 219 201 196 202 203 198 197 197 197 194 193 194 194 194 194
308 308 307 306 305 305 304 304 304 304 304 303 300 297 293 289 285 282 278 275 274 271 269 267 267 268 266 266 265 263 261 252 250 250 241 237 235 235 236 232 230 226 225 226 225 224 224 223 224 225 225 223 223 223 225 228 228 226 222 223 229 233 234 223 214 217 212 214 215 213 221 224 225 216 199 196 205 203 200 201 199 200 198 196 197 198 198 199
308 307 306 305 304 304 303 303 302 302 303 301 299 296 291 287 285 281 274 270 267 267 272 263 252 257 267 274 264 259 261 245 237 244 236 234 235 234 236 232 228 225 224 226 224 222 222 223 223 224 223 221 220 221 223 225 226 228 226 223 225 231 234 228 222 217 211 218 218 216 222 219 221 223 205 199 206 204 201 203 202 203 202 199 200 201 200 202
308 307 306 305 304 303 302 302 301 300 301 299 298 296 290 289 287 281 277 271 265 265 272 267 251 251 262 273 267 257 256 240 235 241 233 235 237 234 236 231 227 227 226 226 223 221 222 225 224 223 223 221 221 222 225 227 229 231 232 230 228 230 232 231 231 220 211 222 222 220 225 216 217 222 208 202 206 205 204 205 205 204 204 202 201 202 203 204
308 307 307 305 303 302 301 301 299 298 297 294 293 291 290 294 290 287 289 282 272 267 268 266 260 258 259 261 260 256 254 244 240 239 233 235 238 238 236 229 228 229 227 227 226 222 224 228 227 225 224 224 223 224 225 228 230 230 235 237 233 234 234 232 234 219 210 222 223 218 225 221 217 217 210 207 208 207 207 206 207 206 205 204 202 203 205 204
305 305 306 305 303 302 301 300 297 295 292 287 285 284 286 291 288 288 290 283 276 271 267 265 262 261 259 256 254 254 255 250 240 236 236 237 238 239 235 228 231 232 226 227 228 225 227 231 229 226 226 225 226 225 225 227 229 230 233 237 237 238 237 235 235 217 207 220 225 218 225 226 219 218 216 213 211 212 211 209 210 208 207 207 204 204 206 205
303 303 304 303 303 301 300 299 295 290 286 283 280 281 284 287 286 288 286 280 277 272 265 261 259 258 257 254 249 246 249 249 243 238 234 236 237 237 235 231 232 233 229 227 228 228 231 232 230 228 227 225 225 225 225 226 229 231 231 232 236 240 239 233 231 218 208 218 230 222 224 228 224 222 220 218 216 215 214 213 213 211 210 209 207 206 207 207
302 302 302 302 302 299 299 297 291 286 284 282 279 278 282 285 286 288 285 278 275 270 263 258 255 254 253 252 247 242 244 245 245 240 232 232 235 235 236 235 233 235 233 229 230 232 235 233 229 228 227 225 224 224 224 226 227 230 230 230 233 236 237 234 231 220 207 214 228 226 225 229 227 225 223 221 220 217 215 214 214 213 212 212 212 210 210 210
300 300 300 301 300 299 298 292 284 286 287 282 279 279 282 284 285 288 286 278 273 269 264 258 254 253 249 246 244 241 243 243 242 240 234 231 232 233 237 237 236 237 235 232 233 236 237 234 228 227 226 225 225 224 224 225 227 229 229 230 232 234 237 236 231 223 212 216 224 225 230 232 228 228 226 221 220 219 216 216 215 214 213 214 215 213 212 213
298 298 298 299 298 299 296 286 282 288 284 278 281 282 283 284 284 285 283 278 275 270 261 254 253 251 243 239 238 237 244 246 241 238 236 232 231 233 237 237 238 239 236 235 238 240 238 234 230 228 226 225 225 226 224 224 228 230 228 228 231 235 239 237 233 230 226 223 223 225 234 239 232 230 228 224 223 221 218 218 218 217 215 215 217 217 216 215
297 296 296 296 296 296 291 283 284 285 278 278 285 283 281 282 281 283 280 276 276 269 253 246 249 248 241 235 229 230 243 249 241 236 235 231 228 231 236 236 237 239 238 237 240 241 236 233 232 229 227 225 225 226 224 222 228 232 229 227 228 232 237 238 236 236 233 228 229 231 235 240 238 233 229 226 227 225 222 221 221 219 218 218 219 219 218 218
295 294 294 294 293 291 283 280 283 280 275 279 283 280 279 279 277 276 273 271 275 268 250 246 250 249 244 235 226 230 243 251 244 235 231 230 226 229 235 237 237 237 235 236 239 239 235 232 232 230 228 228 227 227 224 223 227 231 230 229 229 229 233 238 239 238 235 230 231 230 230 238 240 233 229 227 227 228 225 223 222 222 221 221 222 222 221 222
294 293 292 291 291 287 279 276 277 276 275 278 278 277 276 275 271 268 264 264 269 268 258 251 249 245 241 234 229 234 241 248 251 237 227 227 227 229 236 237 238 238 235 237 241 240 238 235 233 232 231 230 229 228 226 226 227 229 230 231 232 231 231 235 239 240 238 236 234 229 227 237 243 235 230 229 227 227 226 225 225 225 223 223 224 224 224 224
293 292 291 290 287 283 279 275 272 274 276 275 274 275 273 269 264 259 257 259 264 265 258 251 246 241 235 233 234 236 236 242 246 233 224 226 225 229 238 237 237 241 239 239 241 242 242 239 234 234 234 232 231 229 227 227 227 227 228 231 233 233 232 234 236 239 240 238 237 235 230 233 241 237 231 230 230 228 228 227 227 225 223 224 225 226 226 226
293 291 290 288 283 279 278 274 271 273 275 273 273 272 267 263 258 254 255 259 264 260 254 252 247 239 233 233 237 236 234 237 238 230 228 227 225 229 235 235 235 238 241 240 241 241 241 240 237 235 234 233 233 231 228 227 226 225 225 227 230 232 234 235 233 232 236 237 237 239 237 233 236 237 233 232 231 231 231 228 226 224 223 225 226 227 226 225
292 291 289 286 281 275 271 270 272 272 271 271 271 267 261 258 254 252 254 261 264 258 251 251 248 241 235 235 238 235 232 235 233 230 230 229 229 230 231 233 231 232 236 238 238 238 237 238 238 236 232 231 232 230 228 226 224 223 223 224 226 228 230 233 231 230 235 238 236 238 239 236 238 237 234 234 231 229 231 231 228 226 225 225 224 224 224 224
292 290 287 283 279 274 268 268 270 269 268 268 265 261 256 256 254 251 250 253 257 261 256 251 248 243 238 237 239 235 232 233 231 231 232 231 232 233 231 231 230 231 234 235 235 236 237 236 235 235 232 229 230 228 225 225 223 221 220 220 223 225 226 229 231 233 238 239 234 235 240 240 241 238 232 234 233 230 231 230 229 227 224 222 219 219 224 225
292 290 286 281 278 273 269 267 267 265 265 264 259 255 251 253 256 253 250 249 251 259 261 258 254 246 240 238 239 235 233 234 232 231 233 232 234 235 232 230 230 232 235 235 236 235 237 236 232 232 232 227 227 228 226 225 225 223 222 223 224 225 227 230 231 233 238 239 236 236 238 240 241 238 232 234 233 231 231 229 227 226 222 221 221 222 227 228
292 288 284 281 276 273 269 264 262 262 261 258 255 252 250 253 256 254 253 251 251 254 257 259 258 251 245 242 239 236 235 236 233 232 233 233 234 235 233 231 229 229 231 234 236 235 238 241 233 230 232 229 226 226 225 226 227 225 223 225 227 226 228 233 235 236 238 241 240 238 239 239 240 239 233 233 232 229 229 228 226 224 222 224 225 222 224 224
292 288 284 280 275 272 268 262 259 258 258 256 253 251 252 254 256 254 254 254 252 252 255 255 253 251 249 245 242 238 237 237 234 234 236 234 235 235 234 233 229 227 229 231 234 235 238 243 236 229 230 230 227 225 223 224 227 225 222 225 227 227 229 233 237 239 238 240 239 238 240 239 238 238 232 231 232 228 226 226 225 223 223 225 224 219 217 216
291 288 285 281 275 270 266 261 257 257 256 254 252 253 255 255 255 254 255 255 255 254 254 252 249 248 249 247 244 239 237 237 234 235 238 235 236 235 233 234 230 228 229 230 233 236 239 244 237 230 230 228 225 224 224 225 226 226 225 226 226 227 229 231 234 236 236 239 239 237 239 238 237 238 231 227 230 226 222 223 220 219 222 223 222 216 213 215
290 288 285 281 276 268 263 260 258 256 256 254 254 255 256 255 254 254 254 255 257 256 254 252 249 247 246 246 245 240 237 236 235 236 238 238 240 236 232 233 232 228 228 229 233 234 237 244 239 231 231 226 221 222 226 226 226 228 230 226 223 225 227 226 229 233 235 238 239 238 239 239 237 238 231 227 229 225 221 220 218 220 220 221 222 216 211 215
289 286 282 280 276 269 262 260 259 257 256 255 255 256 256 256 255 254 254 254 255 254 252 252 251 249 247 246 245 242 237 237 237 238 237 239 241 237 233 233 232 229 226 226 231 233 233 239 240 233 228 222 219 222 226 226 224 227 230 229 227 227 227 226 228 232 235 236 238 238 239 238 236 237 233 231 229 224 220 218 221 227 225 221 224 220 215 215
287 283 279 276 274 269 264 263 261 259 257 256 257 258 257 256 255 253 253 252 251 250 249 250 250 249 248 246 245 243 239 238 238 238 238 239 240 238 235 233 231 229 226 224 227 230 230 235 238 232 224 221 223 224 224 224 222 222 225 228 228 228 228 229 231 231 232 235 237 239 240 238 236 236 236 234 231 223 221 224 229 231 229 225 225 224 218 215
286 281 278 275 271 268 266 265 262 260 259 258 257 258 257 257 256 254 252 250 249 248 248 249 250 249 249 247 245 243 241 239 237 237 238 238 239 239 235 232 231 228 225 224 225 226 227 231 234 231 226 225 229 228 225 225 224 223 224 226 228 227 225 228 231 229 230 232 234 239 242 239 236 237 238 237 232 224 224 232 233 228 228 229 229 227 223 220
283 278 277 276 273 272 269 266 263 261 260 259 258 258 257 256 255 254 252 251 249 248 247 247 247 248 248 246 245 244 242 241 238 237 237 236 237 237 234 231 230 228 226 226 226 224 225 229 232 232 231 231 232 228 225 226 226 227 228 226 227 228 226 227 229 229 230 232 233 238 242 240 236 236 238 237 232 225 225 230 230 225 227 229 229 229 225 221
281 278 278 276 274 272 269 266 264 262 261 260 260 258 257 256 254 253 251 249 248 247 246 245 244 244 245 244 244 244 244 242 240 238 238 237 236 235 234 233 229 226 226 226 225 223 224 227 230 232 233 235 235 230 226 226 226 228 230 227 226 228 229 231 232 230 231 233 233 236 239 238 234 234 237 238 236 232 229 229 228 228 229 228 226 227 224 220
281 280 279 277 273 269 267 266 265 264 262 262 260 258 256 255 253 252 250 248 246 246 245 245 244 242 242 243 243 243 243 242 241 239 239 239 237 233 232 230 227 225 224 224 223 222 222 224 226 228 230 231 232 228 224 224 226 228 229 229 228 228 229 232 234 233 233 233 232 235 239 236 232 233 237 238 237 236 232 229 228 230 233 230 226 225 221 217
283 281 279 278 274 268 265 265 265 265 263 261 260 258 256 254 252 251 250 248 246 245 245 245 245 243 242 242 242 242 241 240 241 240 238 238 237 233 228 226 224 224 224 226 224 221 222 223 223 226 228 226 226 226 223 223 227 229 229 229 230 229 228 229 231 233 235 233 232 235 239 237 232 231 233 235 234 232 229 229 230 233 234 229 222 217 212 211
283 281 280 279 275 269 266 264 263 263 263 262 260 258 257 257 254 253 253 249 246 245 245 245 244 243 241 241 241 240 239 238 240 240 237 236 236 232 227 225 223 222 221 225 226 222 223 225 224 226 229 230 228 228 227 226 227 229 228 228 230 231 229 228 230 232 234 236 237 236 238 240 237 231 229 229 230 228 227 228 229 232 231 222 212 208 209 213
281 280 281 281 278 272 268 265 262 262 262 262 261 258 257 258 255 252 252 249 246 245 245 243 242 241 239 239 240 240 238 237 237 238 237 235 235 233 228 225 225 222 219 223 225 222 224 227 225 225 229 232 232 230 229 228 228 229 229 228 228 230 230 229 230 232 233 236 239 238 236 239 238 233 228 227 229 231 231 229 228 230 231 225 216 213 215 217
280 279 279 280 277 273 269 266 264 263 262 262 261 259 257 256 254 251 250 248 245 245 243 241 240 241 240 239 239 239 239 236 235 235 234 233 233 233 228 225 225 222 220 224 225 223 226 228 227 225 226 228 232 232 231 230 230 230 230 229 227 228 230 231 232 233 232 235 238 237 236 237 236 235 235 233 232 234 234 232 229 228 229 228 222 219 220 220
279 279 278 277 275 272 270 267 265 263 261 260 259 257 255 253 251 249 248 247 243 242 242 241 241 243 242 240 239 239 238 238 235 233 231 231 231 230 228 226 224 221 220 223 223 222 226 229 229 230 228 225 227 230 232 233 232 231 230 230 229 228 229 232 235 235 234 236 239 238 238 238 237 236 237 236 237 239 236 233 230 227 227 229 227 224 225 225
278 277 277 276 273 271 270 267 264 262 259 257 256 255 253 251 249 246 244 244 243 241 241 242 242 241 241 240 238 238 239 241 239 233 230 230 228 227 227 226 225 222 222 223 222 222 225 228 228 230 232 229 225 227 229 232 235 236 233 231 231 232 231 231 234 236 236 237 238 239 240 240 238 237 237 237 238 241 238 234 231 228 227 229 232 233 234 234
276 275 276 274 270 268 268 266 264 261 258 254 254 254 252 249 248 245 241 240 242 242 240 241 241 239 238 238 237 239 242 242 239 235 233 231 227 225 226 226 225 223 223 223 223 222 224 227 226 227 230 231 229 226 227 229 234 237 236 234 232 233 234 234 233 234 236 238 239 239 241 241 239 238 238 237 238 238 238 236 235 233 231 231 233 236 239 238
276 275 273 271 267 264 264 265 264 261 259 256 254 254 254 250 248 246 241 238 239 240 239 239 238 236 235 236 237 239 243 243 239 237 236 233 229 227 227 227 225 222 222 223 222 222 224 225 226 226 229 230 230 229 228 228 231 233 234 235 235 234 236 238 237 234 234 236 239 240 241 241 240 238 238 237 237 236 236 236 237 237 235 234 235 236 237 236